Regional Weather Roundup
Issued by NWS

Home | Current Version | Previous Version | Graphics & Text | Print | Product List | Glossary On
Versions: 1 2 3 4 5 6 7 8 9 10 11 12 13 14 15 16 17 18 19 20 21 22 23 24 25 26 27 28 29 30 31 32 33 34 35 36 37 38 39 40 41 42 43 44 45 46 47 48 49 50
000
ASUS43 KMKX 210911
RWRWI

WISCONSIN REGIONAL WEATHER ROUNDUP
NATIONAL WEATHER SERVICE MILWAUKEE/SULLIVAN WI
300 AM CST SUN DEC 21 2014

NOTE: "FAIR" INDICATES FEW OR NO CLOUDS BELOW 12,000 FEET WITH NO
SIGNIFICANT WEATHER AND/OR OBSTRUCTIONS TO VISIBILITY.

WIZ001-002-006>008-014>016-023>028-211000-
NORTHWEST WISCONSIN

CITY           SKY/WX    TMP DP  RH WIND       PRES   REMARKS
SUPERIOR ARPT  CLOUDY    32  28  86 SW6       30.03F WCI  26
ASHLAND        CLOUDY    31  26  82 S10       30.06F WCI  22
HAYWARD        CLOUDY    30  25  81 S14G21    30.04F WCI  19
SIREN          CLOUDY    31  27  85 S5        30.03F WCI  26
CUMBERLAND     CLOUDY    30  28  93 SE8       30.03F WCI  23
RICE LAKE      CLOUDY    31  28  91 SE7       30.07F FOG     WCI  24
CHETEK         CLOUDY    30  28  92 E7        30.06F WCI  23
LADYSMITH      CLOUDY    30  29  95 S7        30.09F FOG     WCI  23
EAU CLAIRE     CLOUDY    31  27  85 S8        30.07F WCI  23
MENOMONIE      CLOUDY    31  30  94 SE8       30.07F FOG     WCI  24
NEW RICHMOND   CLOUDY    32  29  91 SE9       30.03F WCI  24
OSCEOLA        CLOUDY    32  29  88 SE9       30.05F WCI  24
$$

WIZ003>005-009-010-017-018-211000-
NORTH CENTRAL WISCONSIN

CITY           SKY/WX    TMP DP  RH WIND       PRES   REMARKS
MANITOWISH WTR CLOUDY    27  27 100 S7        30.05F FOG     WCI  19
ARBOR VITAE    CLOUDY    29  28  93 S5        30.06F FOG     WCI  24
WOODRUFF       CLOUDY    29  28  93 S5        30.06F FOG     WCI  24
RHINELANDER    CLOUDY    26  24  92 S6        30.09F FOG     WCI  19
EAGLE RIVER    CLOUDY    26  26  99 S5        30.07F FOG     WCI  21
LAND O LAKES   CLOUDY    28  26  96 S5        30.07F FOG     WCI  22
PHILLIPS       CLOUDY    28  26  94 S7        30.06F FOG     WCI  21
TOMAHAWK       CLOUDY    27  26  94 CALM      30.09F FOG
MEDFORD        CLOUDY    28  27  96 S8        30.08F FOG     WCI  19
MERRILL        CLOUDY    28  27  96 S3        30.11S FOG
$$

WIZ029-030-035-036-043>047-211000-
CENTRAL WISCONSIN

CITY           SKY/WX    TMP DP  RH WIND       PRES   REMARKS
WAUSAU         CLOUDY    28  26  92 S6        30.11F FOG     WCI  22
MOSINEE        CLOUDY    28  28 100 SE6       30.13F FOG     WCI  22
MARSHFIELD     CLOUDY    29  26  89 S6        30.11F FOG     WCI  23
STEVENS POINT  CLOUDY    27  26  94 SE5       30.14F FOG     WCI  22
WAUPACA        CLOUDY    31  28  90 SE5       30.17F FOG     WCI  26
WAUTOMA        CLOUDY    30  28  92 SE5       30.17F FOG     WCI  25
WISC RAPIDS    CLOUDY    29  25  85 S3        30.15F FOG
CAMP DOUGLAS   CLOUDY    30  30 100 SE7       30.13F WCI  23
$$

WIZ011>013-019>022-031-037>040-048>050-211000-
NORTHEAST WISCONSIN

CITY           SKY/WX    TMP DP  RH WIND       PRES   REMARKS
ANTIGO         CLOUDY    26  26 100 S8        30.11F FOG     WCI  17
SHAWANO        CLOUDY    31  27  87 S3        30.18F FOG
OCONTO         CLOUDY    29  28  94 CALM      30.19F
STURGEON BAY   CLOUDY    28  25  86 S5        30.21F WCI  23
GREEN BAY      CLOUDY    30  27  88 S6        30.20S FOG     WCI  24
MANITOWOC      CLOUDY    31  28  89 S6        30.21F WCI  25
APPLETON       CLOUDY    30  28  93 S6        30.18F FOG     WCI  24
CLINTONVILLE   CLOUDY    30  28  93 S6        30.18S FOG     WCI  24
OSHKOSH        CLOUDY    30  26  85 S8        30.18F FOG     WCI  22
$$

WIZ032>034-041-042-053>061-211000-
SOUTHWEST WISCONSIN

CITY           SKY/WX    TMP DP  RH WIND       PRES   REMARKS
LA CROSSE      CLOUDY    33  29  85 SE8       30.11F FOG     WCI  26
SPARTA         CLOUDY    31  28  88 SE6       30.13F FOG     WCI  25
VIROQUA        CLOUDY    30  30 100 SE8       30.10S VSB 3/4 WCI  22
BOSCOBEL       CLOUDY    33  29  85 SE5       30.14F FOG     WCI  29
PRAIRIE DU CHI CLOUDY    32  31  96 SE5       30.13F FOG     WCI  27
PLATTEVILLE    CLOUDY    32  31  97 CALM      30.15F
$$

WIZ056-057-062-063-064-067-068-211000-
SOUTH CENTRAL WISCONSIN

CITY           SKY/WX    TMP DP  RH WIND       PRES   REMARKS
REEDSBURG      CLOUDY    29  28  93 SE3       30.14F FOG
BARABOO/DELLS  CLOUDY    30  27  90 S7        30.14F FOG     WCI  23
LONE ROCK      CLOUDY    35  28  75 SE7       30.15F HAZE    WCI  29
MINERAL POINT  CLOUDY    32  32 100 SE7       30.13F FOG     WCI  26
MADISON        CLOUDY    31  28  89 S7        30.17F FOG     WCI  24
MIDDLETON      CLOUDY    32  31  95 S6        30.17F WCI  26
WATERTOWN      CLOUDY    30  29  96 SE3       30.19S
MONROE         CLOUDY    32  32 100 SE8       30.15F FOG     WCI  25
JANESVILLE     CLOUDY    32  30  93 S7        30.19S FOG     WCI  26
$$

WIZ051-052-058>065-066-070>072-211000-
SOUTHEAST WISCONSIN

CITY           SKY/WX    TMP DP  RH WIND       PRES   REMARKS
MILWAUKEE      CLOUDY    32  25  75 S6        30.22S WCI  26
WAUKESHA       CLOUDY    30  27  86 S6        30.20F WCI  24
MILWAUKEE/TIMM CLOUDY    32  27  80 S6        30.22F WCI  26
RACINE         CLOUDY    32  26  78 S5        30.24S WCI  27
BURLINGTON     CLOUDY    30  26  87 CALM      30.21F
KENOSHA        CLOUDY    32  27  81 S5        30.22S WCI  27
FOND DU LAC    CLOUDY    31  26  82 S6        30.19F WCI  25
SHEBOYGAN      CLOUDY    30  26  85 CALM      30.20F
WEST BEND      CLOUDY    30  27  86 CALM      30.20S
JUNEAU         CLOUDY    30  27  91 SE5       30.19F FOG     WCI  25
$$

LSZ147-162-211000-
LAKE SUPERIOR

STATION/POSITION TIME  TEMP    WIND        PRES    WAVE
                       AIR SEA DIR/SP/G            HT/PER
                 (UTC) (F)     (DEG/KT/KT) (MB)    (FT/S)
DEVILS ISLAND    0900   32     200/ 10/ 14 1018.6F
PORT WING        0800   32     190/ 10/ 14 1017.9F
SAXON HARBOR     0840   33     190/  6/ 10 1018.3F
$$

LMZ867-665-643>646-211000-
LAKE MICHIGAN

STATION/POSITION TIME  TEMP    WIND        PRES    WAVE
                       AIR SEA DIR/SP/G            HT/PER
                 (UTC) (F)     (DEG/KT/KT) (MB)    (FT/S)
CHAMBERS ISLAND  0800   29      CALM  /  2 1023.0R
NORTHPORT PIER   0836   30     170/  1/  3 1022.7S
SISTER BAY       0713             CALM       N/A
ALGOMA LAKESHORE 0814          220/  6/  7   N/A
KEWAUNEE LAKESHO 0800   31     200/  2/  5 1022.2R
SHEBOYGAN LAKESH 0900   31 34  200/  6/  6 1024.1F
PORT WASHINGTON  0840   32     230/  3/  4 1024.0S
MILWAUKEE LAKESH 0800   33     190/  6/  7   N/A
KENOSHA   LAKESH 0900   33     190/  4/  6 1023.4F
$$

TC  - TEMPERATURE IN CELSIUS
VSB - VISIBILITY IN STATUTE MILES
WCI - WIND CHILL INDEX
HX  - HEAT INDEX




USA.gov is the U.S. government's official web portal to all federal, state and local government web resources and services.